OHEEK EHAM-EHRD

Flight info

Callsign OHEEK
Flight time N/A
Altitude 3000
Route LEKKO KAKKO
Aircraft C172/L-V/N

Departure

Time 2026-05-04 15:34
Airport Amsterdam Airport Schiphol (EHAM)

Arrival

Time N/A
Airport Rotterdam The Hague Airport (EHRD)
Time Latitude Longitude Altitude Speed Heading
2026-05-04 15:24 52.31088 4.80318 -11 ft 0 kts 133°
2026-05-04 15:27 52.31082 4.80325 -10 ft 3 kts 166°
2026-05-04 15:27 52.31037 4.80128 -12 ft 18 kts 220°
2026-05-04 15:28 52.30808 4.79800 -5 ft 25 kts 221°
2026-05-04 15:28 52.30668 4.79601 -6 ft 25 kts 220°
2026-05-04 15:28 52.30438 4.79270 -9 ft 17 kts 221°
2026-05-04 15:29 52.30355 4.79152 -9 ft 14 kts 226°
2026-05-04 15:30 52.30067 4.78740 -6 ft 16 kts 221°
2026-05-04 15:30 52.30058 4.78594 -8 ft 0 kts 314°
2026-05-04 15:32 52.30207 4.78594 -10 ft 21 kts 39°
2026-05-04 15:32 52.30726 4.79339 45 ft 73 kts 41°
2026-05-04 15:33 52.31549 4.80510 320 ft 90 kts 38°
2026-05-04 15:34 52.32436 4.83181 880 ft 92 kts 75°
2026-05-04 15:34 52.32330 4.84216 984 ft 103 kts 125°
2026-05-04 15:34 52.30989 4.85675 958 ft 121 kts 147°
2026-05-04 15:35 52.29513 4.86898 1071 ft 121 kts 152°
2026-05-04 15:35 52.28749 4.87515 1093 ft 122 kts 149°
2026-05-04 15:35 52.28023 4.88276 1063 ft 127 kts 144°
2026-05-04 15:36 52.26553 4.89895 1007 ft 129 kts 140°
2026-05-04 15:36 52.25861 4.90795 1018 ft 126 kts 138°
2026-05-04 15:36 52.25197 4.91740 998 ft 127 kts 135°
2026-05-04 15:37 52.24549 4.92735 961 ft 127 kts 133°
2026-05-04 15:37 52.23906 4.93735 943 ft 127 kts 134°
2026-05-04 15:37 52.23290 4.94747 949 ft 125 kts 129°
2026-05-04 15:37 52.22745 4.95851 948 ft 125 kts 124°
2026-05-04 15:38 52.22227 4.96981 972 ft 123 kts 127°
2026-05-04 15:38 52.21584 4.97918 981 ft 125 kts 144°
2026-05-04 15:38 52.20773 4.98473 972 ft 127 kts 160°
2026-05-04 15:38 52.19909 4.98856 935 ft 129 kts 165°
2026-05-04 15:39 52.19036 4.99059 994 ft 125 kts 180°
2026-05-04 15:39 52.18160 4.98844 967 ft 128 kts 185°
2026-05-04 15:39 52.16403 4.98403 941 ft 129 kts 198°
2026-05-04 15:40 52.15562 4.97890 944 ft 128 kts 201°
2026-05-04 15:40 52.14750 4.97342 985 ft 125 kts 202°
2026-05-04 15:40 52.13956 4.96721 977 ft 126 kts 207°
2026-05-04 15:40 52.13194 4.96001 991 ft 126 kts 211°
2026-05-04 15:41 52.12416 4.95283 922 ft 131 kts 209°
2026-05-04 15:41 52.11633 4.94548 938 ft 128 kts 210°
2026-05-04 15:41 52.10872 4.93804 968 ft 126 kts 211°
2026-05-04 15:41 52.10108 4.93067 932 ft 130 kts 211°
2026-05-04 15:42 52.09334 4.92299 936 ft 129 kts 211°
2026-05-04 15:42 52.08566 4.91531 950 ft 127 kts 211°
2026-05-04 15:42 52.07807 4.90815 972 ft 127 kts 207°
2026-05-04 15:42 52.06963 4.90293 944 ft 129 kts 194°
2026-05-04 15:43 52.06131 4.89706 908 ft 129 kts 210°
2026-05-04 15:43 52.05354 4.88982 897 ft 130 kts 211°
2026-05-04 15:43 52.04558 4.88290 898 ft 128 kts 207°
2026-05-04 15:43 52.03774 4.87617 927 ft 126 kts 208°
2026-05-04 15:44 52.03004 4.86938 978 ft 125 kts 209°
2026-05-04 15:44 52.02250 4.86196 952 ft 130 kts 213°
2026-05-04 15:44 52.01472 4.85480 991 ft 127 kts 206°
2026-05-04 15:44 52.00642 4.84921 950 ft 131 kts 201°
2026-05-04 15:45 51.99805 4.84345 954 ft 129 kts 202°
2026-05-04 15:45 51.98984 4.83789 977 ft 127 kts 201°
2026-05-04 15:45 51.98158 4.83269 985 ft 128 kts 204°
2026-05-04 15:45 51.97351 4.82636 956 ft 130 kts 208°
2026-05-04 15:46 51.96581 4.81902 991 ft 128 kts 213°
2026-05-04 15:46 51.95846 4.81060 950 ft 131 kts 219°
2026-05-04 15:46 51.95163 4.80123 994 ft 127 kts 222°
2026-05-04 15:46 51.94501 4.79149 980 ft 129 kts 224°
2026-05-04 15:47 51.93861 4.78148 991 ft 128 kts 226°
2026-05-04 15:47 51.93250 4.77106 995 ft 128 kts 232°
2026-05-04 15:47 51.92708 4.75946 984 ft 128 kts 236°
2026-05-04 15:47 51.92285 4.74698 997 ft 126 kts 249°
2026-05-04 15:48 51.92041 4.73349 1025 ft 123 kts 261°
2026-05-04 15:48 51.91856 4.72021 1103 ft 120 kts 258°
2026-05-04 15:48 51.91556 4.69407 1244 ft 117 kts 270°
2026-05-04 15:49 51.91414 4.68110 1312 ft 119 kts 255°
2026-05-04 15:49 51.91182 4.66801 1325 ft 121 kts 259°
2026-05-04 15:49 51.91024 4.65466 1386 ft 119 kts 263°
2026-05-04 15:49 51.90856 4.64179 1501 ft 117 kts 258°
2026-05-04 15:50 51.90581 4.62930 1602 ft 117 kts 236°
2026-05-04 15:50 51.89862 4.62368 1692 ft 120 kts 185°
2026-05-04 15:50 51.89000 4.62373 1702 ft 125 kts 178°
2026-05-04 15:50 51.88113 4.62321 1697 ft 129 kts 184°
2026-05-04 15:51 51.87249 4.62131 1781 ft 126 kts 191°
2026-05-04 15:51 51.86382 4.61621 1651 ft 136 kts 205°
2026-05-04 15:51 51.85541 4.60880 1563 ft 136 kts 215°
2026-05-04 15:51 51.84776 4.59977 1492 ft 136 kts 219°
2026-05-04 15:52 51.84105 4.58956 1553 ft 127 kts 231°
2026-05-04 15:52 51.83632 4.57785 1585 ft 126 kts 248°
2026-05-04 15:52 51.83217 4.56535 1600 ft 126 kts 239°
2026-05-04 15:52 51.82743 4.55342 1612 ft 126 kts 237°
2026-05-04 15:53 51.82218 4.54207 1643 ft 126 kts 234°
2026-05-04 15:53 51.81821 4.52969 1627 ft 126 kts 264°
2026-05-04 15:53 51.82123 4.51694 1489 ft 126 kts 322°
2026-05-04 15:53 51.82948 4.51526 1349 ft 125 kts 23°
2026-05-04 15:54 51.83486 4.52614 1268 ft 126 kts 63°
2026-05-04 15:54 51.83759 4.53916 1313 ft 120 kts 70°
2026-05-04 15:54 51.83987 4.55231 1290 ft 121 kts 71°
2026-05-04 15:54 51.84181 4.56550 1302 ft 120 kts 75°
2026-05-04 15:55 51.84370 4.57859 1313 ft 119 kts 70°
2026-05-04 15:55 51.84684 4.59085 1319 ft 117 kts 53°
2026-05-04 15:55 51.85296 4.59947 1237 ft 120 kts 23°
2026-05-04 15:55 51.86070 4.59808 1220 ft 121 kts 324°
2026-05-04 15:56 51.86641 4.58768 1146 ft 122 kts 312°
2026-05-04 15:56 51.87149 4.57678 1143 ft 121 kts 308°
2026-05-04 15:56 51.87613 4.56562 1196 ft 117 kts 304°
2026-05-04 15:56 51.88085 4.55477 1151 ft 120 kts 316°
2026-05-04 15:57 51.88735 4.54618 1113 ft 118 kts 324°
2026-05-04 15:57 51.89297 4.53678 1148 ft 116 kts 308°
2026-05-04 15:57 51.89740 4.52580 1163 ft 117 kts 302°
2026-05-04 15:57 51.90154 4.51439 1193 ft 116 kts 301°
2026-05-04 15:58 51.90521 4.50294 1258 ft 115 kts 299°
2026-05-04 15:58 51.90891 4.49129 1261 ft 116 kts 301°
2026-05-04 15:58 51.91324 4.48013 1258 ft 117 kts 307°
2026-05-04 15:58 51.91983 4.47240 1106 ft 125 kts 347°
2026-05-04 15:59 51.92797 4.47567 1058 ft 121 kts 33°
2026-05-04 15:59 51.93298 4.48624 1077 ft 121 kts 62°
2026-05-04 15:59 51.93485 4.49959 1099 ft 120 kts 82°
2026-05-04 15:59 51.93549 4.51288 1119 ft 122 kts 78°
2026-05-04 16:00 51.93734 4.52586 1212 ft 114 kts 67°
2026-05-04 16:00 51.94138 4.53658 1275 ft 111 kts 39°
2026-05-04 16:00 51.94828 4.54058 1353 ft 109 kts